Regional Weather Roundup
Issued by NWS

Home | Current Version | Previous Version | Text Only | Print | Product List | Glossary Off
Versions: 1 2 3 4 5 6 7 8 9 10 11 12 13 14 15 16 17 18 19 20 21 22 23 24 25 26 27 28 29 30 31 32 33 34 35 36 37 38 39 40 41 42 43 44 45 46 47 48 49 50

000
ASUS43 KTOP 030759
RWRKS

WEATHER ROUNDUP FOR KANSAS
NATIONAL WEATHER SERVICE GOODLAND KS
200 AM CST TUE MAR 03 2015

NOTE:  "FAIR" INDICATES FEW OR NO CLOUDS BELOW 12,000 FEET WITH NO
SIGNIFICANT WEATHER AND/OR OBSTRUCTIONS TO VISIBILITY.

KSZ001>006-013>018-027>032-041>047-030900-
NORTHWEST KANSAS

CITY           SKY/WX    TMP DP  RH WIND       PRES   REMARKS
GOODLAND       CLOUDY    37  31  78 W14G24    29.56F WCI  28
HAYS           CLOUDY    36  25  64 S16       29.65F WCI  26
HILL CITY      CLOUDY    34  29  82 S10G18    29.58F WCI  26
RUSSELL        CLOUDY    34  28  79 S20       29.65F WCI  23
$$

KSZ061>065-074>080-084>089-030900-
SOUTHWEST KANSAS

CITY           SKY/WX    TMP DP  RH WIND       PRES   REMARKS
DODGE CITY     CLOUDY    35  30  82 S20G29    29.70R WCI  24
ELKHART          N/A     39  33  79 SW15        N/A  WCI  31
GARDEN CITY    CLOUDY    35  32  88 S23G36    29.63F WCI  23
GREAT BEND     CLOUDY    36  27  69 SW15      29.70F WCI  26
LIBERAL        CLOUDY    36  30  80 S17       29.73S WCI  25
$$

KSZ066>073-081>083-090>101-030900-
SOUTHEAST KANSAS

CITY           SKY/WX    TMP DP  RH WIND       PRES   REMARKS
CHANUTE        CLOUDY    35  34  96 S14       29.93F FOG     WCI  26
COFFEYVILLE    CLOUDY    36  34  92 S18G26    29.95F FOG     WCI  26
HUTCHINSON     CLOUDY    35  31  85 S24G31    29.79F FOG     WCI  23
NEWTON         CLOUDY    34  28  80 S30       29.80F WCI  20
PARSONS        CLOUDY    36  35  96 S15G22    29.95F FOG     WCI  27
WICHITA INTL   FOG       33  32  96 S23       29.84F VSB 3/4 WCI  21
WICHITA JABRA  CLOUDY    34  33  96 S18G30    29.84F FOG     WCI  23
WICHITA MCCONL CLOUDY    32  32 100 S20       29.86F FOG     WCI  20
WINFIELD       CLOUDY    36  35  96 S18G28    29.90F FOG     WCI  26
$$

KSZ007>012-019>026-033>040-048>060-102>105-030900-
NORTHEAST KANSAS

CITY           SKY/WX    TMP DP  RH WIND       PRES   REMARKS
CONCORDIA      CLOUDY    32  29  88 S16G28    29.72F FOG     WCI  21
EMPORIA        CLOUDY    33  33 100 S15G23    29.86F FOG     WCI  23
LAWRENCE       CLOUDY    33  32  96 S12       29.90F FOG     WCI  24
MANHATTAN      CLOUDY    35  33  92 S9        29.82F
OLATHE IND     CLOUDY    32  32 100 S14       29.90F FOG     WCI  22
OLATHE EXE     CLOUDY    32  32 100 S14       29.90F FOG     WCI  22
SALINA         CLOUDY    35  30  82 S15G25    29.77F HAZE    WCI  25
TOPEKA BILLARD CLOUDY    34  32  92 S12G18    29.87F FOG     WCI  25
TOPEKA FORBES  CLOUDY    35  32  88 S18       29.84F FOG     WCI  24
$$


USA.gov is the U.S. government's official web portal to all federal, state and local government web resources and services.